sat.trackr.live / text

‹ back to catalog

TIANQI-37

NORAD 67476 · 2026-010A

PAYLOAD ACTIVE UNKNOWN

§ Identity

Operator
Country
PRC
Launch date
2026-01-15
Launch site
YSLA
Launch vehicle
Mass (kg)
RCS (m²)

External: N2YO · Heavens-Above · Gunter

§ Orbital elements

Epoch: 2026-09-20T08:34:27.130944Z

Period
102.92 min
Inclination
44.9838°
Eccentricity
0.0010389
Mean motion
13.99190192 rev/d
Perigee alt
889.0 km
Apogee alt
904.2 km
Semi-major
7,274.7 km
B*
8.8390e-5
RAAN
18.2801°
Arg perigee
57.9429°
Mean anomaly
302.2411°
Rev number
3,472

§ Raw data

TIANQI-371 67476U 26010A   26263.35725846  .00000000  00000+0  88390-4 0  99992 67476  44.9838  18.2801 0010389  57.9429 302.2411 13.99190192 34728

JSON: /api/v1/satellites/67476 · /tle

For live sub-satellite position, see the globe view (requires WebGL).

§ Visibility from observer

Set your observer location to see the next 7 days of passes ≥ 10°. The values pass through the URL so the page stays shareable.

No JS? Fill the form by hand. The geolocation button needs JavaScript.